#timestamp,LO_Frequency,Hit,StdDev 
1670817615.8,286046999.0,N
1670817635.6,286046999.8,N
1670817655.4,286047002.0,N
1670817675.3,286047000.7,N
1670817695.1,286046998.4,N
1670817715.9,286046998.4,N
1670817735.7,286046998.8,N
1670817755.5,286046996.5,N
1670817775.4,286046998.4,N
1670817795.2,286046998.4,N
1670817815.0,286046998.5,N
1670817815.9,286046998.5,N
1670817835.8,286047000.7,N
1670817855.6,286047001.1,N
1670817875.5,286047000.9,N
1670817895.3,286047000.9,N
1670817915.1,286047000.7,N
1670817935.9,286047001.2,N
1670817955.7,286046999.1,N
1670817975.5,286046998.1,N
1670817995.4,286047000.0,N
1670818015.2,286046998.1,N
1670818035.1,286047001.1,N
1670818036.0,286047001.1,N
1670818055.8,286046998.4,N
1670818075.6,286046998.3,N
1670818095.5,286046998.4,N
1670818115.3,286046998.6,N
1670818135.2,286047000.3,N
1670818155.9,286047000.8,N
1670818175.7,286046996.9,N
1670818195.6,286046994.9,Y
1670818215.4,286046997.2,P
1670818235.2,286046998.1,N
1670818255.1,286046998.5,N
1670818256.0,286046998.5,N
1670818275.8,286047001.1,N
1670818295.7,286047002.1,N
1670818315.5,286047001.5,N
1670818335.4,286046998.1,N
1670818355.2,286046998.9,N
1670818375.0,286046998.9,N
1670818375.9,286046998.9,N
1670818395.8,286047000.8,N
1670818415.6,286047000.3,N
1670818435.4,286047000.4,N
1670818455.3,286047002.3,N
1670818475.1,286047000.5,N
1670818495.9,286047000.8,N
1670818515.7,286046999.7,N
1670818535.5,286047001.0,N
1670818555.4,286046999.8,N
1670818575.2,286047000.4,N
1670818595.0,286047000.6,N
1670818595.9,286047000.6,N
1670818615.8,286046999.8,N
1670818635.6,286047000.0,N
1670818655.5,286047001.0,N
1670818675.3,286047000.6,N
1670818695.1,286047000.9,N
1670818715.9,286047000.2,N
1670818735.7,286047000.2,N
1670818755.5,286047000.9,N
1670818775.4,286047001.0,N
1670818795.2,286047000.1,N
1670818815.1,286047000.1,N
1670818816.0,286047000.1,N
1670818835.8,286047002.5,N
1670818855.6,286046999.7,N
1670818875.5,286047000.1,N
1670818895.3,286047002.7,Y
1670818915.2,286047000.3,P
1670818935.9,286047000.1,N
1670818955.7,286046998.4,P
1670818975.6,286046998.8,N
1670818995.4,286046998.6,N
1670819015.2,286046998.6,N
1670819035.1,286047000.6,N
1670819036.0,286047000.6,N
1670819055.8,286047000.6,N
1670819075.7,286047000.6,N
1670819095.5,286047000.1,N
1670819115.3,286046998.8,N
1670819135.2,286046997.8,N
1670819155.0,286046997.1,N
1670819155.9,286046997.1,N
1670819175.8,286046997.1,N
1670819195.6,286046997.2,N
1670819215.4,286046999.6,N
1670819235.3,286047000.8,N
1670819255.1,286047000.9,N
1670819275.8,286047002.5,N
1670819295.7,286047005.9,Y
1670819315.5,286047003.0,P
1670819335.4,286047003.9,N
1670819355.2,286047001.3,N
1670819375.0,286047002.4,N
1670819375.9,286047002.4,N
1670819395.8,286047002.8,N
1670819415.6,286047000.4,N
1670819435.4,286047002.4,N
1670819455.3,286047000.4,N
1670819475.1,286047002.7,N
1670819495.9,286047002.0,N
1670819515.7,286047001.7,N
1670819535.5,286047001.3,N
1670819555.4,286047001.5,N
1670819575.2,286047001.5,N
1670819595.1,286047002.6,N
1670819596.0,286047002.6,N
1670819615.8,286047000.1,N
1670819635.6,286046998.1,N
1670819655.5,286046999.6,N
1670819675.3,286047000.7,N
1670819695.1,286046998.4,N
1670819715.9,286047000.7,N
1670819735.7,286046999.4,N
1670819755.6,286046999.3,N
1670819775.4,286046999.2,N
1670819795.2,286047001.2,N
1670819815.1,286046998.1,N
1670819816.0,286046998.1,N
1670819835.8,286047000.4,N
1670819855.7,286047000.8,N
1670819875.5,286047000.6,N
1670819895.3,286046998.3,N
1670819915.2,286046998.6,N
1670819935.0,286047002.8,N
1670819935.9,286047002.8,N
1670819955.7,286047002.6,N
1670819975.6,286047002.3,N
1670819995.4,286047002.8,N
1670820015.3,286047002.7,N
1670820035.1,286047002.3,N
1670820055.8,286047002.4,N
1670820075.7,286047002.2,N
1670820095.5,286047001.6,N
1670820115.4,286047002.8,N
1670820135.2,286047000.0,N
1670820155.0,286047002.3,N
1670820155.9,286047002.3,N
1670820175.8,286047001.0,N
1670820195.6,286047000.8,N
1670820215.5,286047000.8,N
1670820235.3,286047001.0,N
1670820255.1,286047002.7,N
1670820275.9,286047002.5,N
1670820295.7,286047002.0,N
1670820315.5,286047002.3,N
1670820335.4,286046999.8,N
1670820355.2,286046998.6,N
1670820375.1,286047000.5,N
1670820376.0,286047000.5,N
1670820395.8,286047002.3,N
1670820415.6,286047001.9,N
1670820435.5,286047002.4,N
1670820455.3,286046999.9,N
1670820475.1,286047000.4,N
1670820495.9,286047002.6,N
1670820515.7,286046999.8,N
1670820535.6,286046999.7,N
1670820555.4,286047002.3,N
1670820575.2,286047002.7,N
1670820595.1,286047002.6,N
1670820596.0,286047002.6,N
1670820615.8,286047002.0,N
1670820635.6,286047001.9,N
1670820655.5,286047001.6,N
1670820675.3,286047002.6,N
1670820695.2,286047002.5,N
1670820715.9,286047002.8,N
1670820735.7,286047000.3,N
1670820755.6,286046999.9,N
1670820775.4,286047001.8,N
1670820795.3,286047003.9,Y
1670820815.1,286047001.7,P
1670820816.0,286047001.7,P
1670820835.8,286047002.4,P
1670820855.7,286047000.3,N
1670820875.5,286047002.1,Y
1670820895.3,286046998.6,P
1670820915.2,286046998.5,N
1670820935.0,286046999.2,N
1670820935.9,286046999.2,N
1670820955.8,286046999.0,N
1670820975.6,286046998.6,N
1670820995.4,286046999.0,N
1670821015.3,286046999.0,N
1670821035.1,286046998.8,N
1670821055.8,286046999.3,N
1670821075.7,286046999.0,N
1670821095.5,286046998.6,N
1670821115.4,286047000.0,N
1670821135.2,286047000.3,N
1670821155.0,286046999.9,N
1670821155.9,286046999.9,N
1670821175.8,286046999.0,N
1670821195.6,286046998.8,N
